Flag for Denmark Weather past 2 weeks in Esbjerg, Denmark

Now
52 °F

Passing clouds.


Feels Like: 49 °F
Forecast: 56 / 63 °F
Wind: 9 mph from West

Location: Esbjerg Airport

Current Time: Aug 20, 2014 at 11:29:02 PM

Latest Report: Aug 20, 2014 at 10:50 PM


Visibility: N/A

Pressure: 29.83 "Hg

Humidity: 82%

Dew point: 46 °F

Location of EsbjergLocation

Historic Weather in Esbjerg — Graph

°F

Esbjerg temperature yesterday

Maximum temperature yesterday: 63 °F (at 1:50 PM)
Minimum temperature yesterday: 54 °F (at 4:50 AM)
Average temperature yesterday: 57 °F

Past Weeks' High & Low Weather Summary

 TemperatureHumidityPressure
High75 °F (Aug 10, 2:20 PM)100% (Aug 8, 5:20 AM)30.07 "Hg (Aug 8, 5:20 AM)
Low52 °F (Aug 6, 3:50 AM)44% (Aug 6, 5:20 PM)29.30 "Hg (Aug 18, 7:20 AM)
Average61 °F77%29.71 "Hg
* Reported Aug 5 10:20 PM — Aug 20 10:20 PM, Esbjerg, Weather by CustomWeather, © 2014

Note: Actual official high and low records may vary slightly from our data, if they occured in-between our weather recording intervals... More about our weather records

Advertising

Esbjerg weather history for previous 24 hours

 ConditionsComfort  
Time TempWeatherWind HumidityBarometerVisibility
10:20 PM
Aug 20
54 °FPassing clouds.8 mph82%29.83 "HgN/A
9:50 PM54 °FPassing clouds.7 mph82%29.83 "HgN/A
9:20 PM54 °FSprinkles. Scattered clouds.10 mph82%29.83 "HgN/A
8:50 PM54 °FPassing clouds.8 mph82%29.83 "HgN/A
8:20 PM55 °FScattered clouds.13 mph77%29.80 "HgN/A
7:50 PM55 °FPassing clouds.14 mph77%29.80 "HgN/A
7:20 PM57 °FScattered clouds.12 mph77%29.80 "HgN/A
6:50 PM55 °FLight rain. Scattered clouds.17 mph77%29.80 "HgN/A
6:20 PM59 °FPassing clouds.17 mph63%29.80 "HgN/A
5:50 PM61 °FPassing clouds.20 mph63%29.80 "HgN/A
5:20 PM59 °FPartly sunny.17 mph72%29.80 "HgN/A
4:50 PM59 °FPartly sunny.17 mph68%29.80 "HgN/A
4:20 PM59 °FPassing clouds.21 mph68%29.80 "HgN/A
3:50 PM61 °FScattered clouds.22 mph68%29.77 "HgN/A
3:20 PM59 °FSprinkles. Scattered clouds.17 mph72%29.77 "HgN/A
2:50 PM61 °FScattered clouds.22 mph68%29.77 "HgN/A
2:20 PM57 °FSprinkles. Scattered clouds.22 mph72%29.77 "HgN/A
1:50 PM61 °FPassing clouds.22 mph68%29.77 "HgN/A
1:20 PM59 °FSprinkles. Scattered clouds.20 mph72%29.77 "HgN/A
12:50 PM55 °FRain showers. Partly sunny.16 mph82%29.77 "HgN/A
12:20 PM61 °FLight rain. Scattered clouds.20 mph68%29.74 "HgN/A
11:50 AM61 °FScattered clouds.23 mph68%29.74 "HgN/A
11:20 AM59 °FBroken clouds.21 mph68%29.74 "HgN/A
10:50 AM57 °FSprinkles. Partly sunny.18 mph77%29.74 "HgN/A
10:20 AM59 °FScattered clouds.21 mph68%29.71 "HgN/A
9:50 AM59 °FPassing clouds.17 mph72%29.71 "HgN/A
9:20 AM59 °FPassing clouds.20 mph68%29.68 "HgN/A
8:50 AM57 °FScattered clouds.16 mph77%29.68 "HgN/A
8:20 AM57 °FScattered clouds.16 mph77%29.68 "HgN/A
7:50 AM54 °FPassing clouds.13 mph82%29.68 "HgN/A
7:20 AM54 °FPartly sunny.13 mph82%29.68 "HgN/A
6:50 AM54 °FSprinkles. Passing clouds.14 mph88%29.68 "HgN/A
6:20 AM54 °FSprinkles. Passing clouds.13 mph82%29.65 "HgN/A
5:50 AM54 °FPassing clouds.12 mph82%29.65 "HgN/A
5:20 AM52 °FPassing clouds.10 mph88%29.65 "HgN/A
4:50 AM54 °FSprinkles. Passing clouds.9 mph82%29.65 "HgN/A
4:20 AM54 °FSprinkles. Passing clouds.15 mph88%29.65 "HgN/A
3:50 AM54 °FPassing clouds.10 mph82%29.65 "HgN/A
3:20 AM54 °FPartly cloudy.10 mph82%29.65 "HgN/A
2:50 AM54 °FLight rain. Passing clouds.12 mph82%29.65 "HgN/A
2:20 AM54 °FPassing clouds.13 mph82%29.65 "HgN/A
1:50 AM54 °FPassing clouds.12 mph82%29.65 "HgN/A
1:20 AM54 °FPartly cloudy.7 mph82%29.65 "HgN/A
12:50 AM54 °FSprinkles. Passing clouds.13 mph82%29.65 "HgN/A
12:20 AM54 °FPassing clouds.9 mph82%29.65 "HgN/A
11:50 PM
Aug 19
54 °FPassing clouds.8 mph88%29.62 "HgN/A
11:20 PM54 °FPassing clouds.7 mph82%29.62 "HgN/A
Weather by CustomWeather, © 2014

See weather overviewHow to use our weather pages